ICE99K EKCH-BIKF

Flight info

Callsign ICE99K
Flight time 2h 36m
Altitude 36000
Route GOLGA DCT AMSEV DCT GUNPA/M077F360 DCT ING DCT NASBU NASBU5N
Aircraft B38M/M-SDE1FGHILORVWXY/HB1

Departure

Time 2026-04-22 11:53
Airport Copenhagen Kastrup Airport (EKCH)

Arrival

Time 2026-04-22 14:29
Airport Keflavik International Airport (BIKF)
Time Latitude Longitude Altitude Speed Heading
2026-04-22 11:12 55.62715 12.64091 20 ft 0 kts 33°
2026-04-22 11:38 55.62701 12.64074 21 ft 4 kts 36°
2026-04-22 11:38 55.62672 12.64006 19 ft 4 kts 101°
2026-04-22 11:39 55.62674 12.63992 23 ft 0 kts 123°
2026-04-22 11:42 55.62674 12.63994 23 ft 1 kts 123°
2026-04-22 11:43 55.62666 12.64015 19 ft 3 kts 124°
2026-04-22 11:43 55.62655 12.64045 19 ft 5 kts 123°
2026-04-22 11:43 55.62631 12.64109 19 ft 7 kts 123°
2026-04-22 11:43 55.62597 12.64199 19 ft 10 kts 123°
2026-04-22 11:44 55.62559 12.64305 19 ft 12 kts 123°
2026-04-22 11:44 55.62516 12.64423 19 ft 13 kts 125°
2026-04-22 11:44 55.62503 12.64456 19 ft 9 kts 125°
2026-04-22 11:44 55.62498 12.64469 19 ft 0 kts 124°
2026-04-22 11:45 55.62494 12.64478 19 ft 2 kts 124°
2026-04-22 11:45 55.62481 12.64513 19 ft 5 kts 123°
2026-04-22 11:45 55.62458 12.64575 19 ft 7 kts 123°
2026-04-22 11:45 55.62419 12.64681 19 ft 15 kts 123°
2026-04-22 11:46 55.62351 12.64866 21 ft 15 kts 124°
2026-04-22 11:46 55.62274 12.64858 21 ft 13 kts 216°
2026-04-22 11:46 55.62218 12.64783 20 ft 0 kts 213°
2026-04-22 11:47 55.62216 12.64781 20 ft 1 kts 213°
2026-04-22 11:47 55.62181 12.64741 22 ft 12 kts 213°
2026-04-22 11:47 55.62075 12.64616 19 ft 25 kts 211°
2026-04-22 11:48 55.61918 12.64504 19 ft 25 kts 180°
2026-04-22 11:48 55.61740 12.64559 19 ft 27 kts 168°
2026-04-22 11:48 55.61582 12.64460 20 ft 20 kts 214°
2026-04-22 11:48 55.61477 12.64338 21 ft 19 kts 212°
2026-04-22 11:49 55.61362 12.64207 22 ft 21 kts 213°
2026-04-22 11:49 55.61237 12.64062 19 ft 22 kts 212°
2026-04-22 11:49 55.61104 12.63910 21 ft 24 kts 213°
2026-04-22 11:49 55.60960 12.63743 21 ft 25 kts 213°
2026-04-22 11:50 55.60839 12.63605 19 ft 13 kts 211°
2026-04-22 11:50 55.60763 12.63633 19 ft 13 kts 131°
2026-04-22 11:50 55.60738 12.63684 19 ft 1 kts 131°
2026-04-22 11:50 55.60731 12.63697 19 ft 3 kts 131°
2026-04-22 11:51 55.60695 12.63774 20 ft 14 kts 123°
2026-04-22 11:51 55.60712 12.63928 21 ft 9 kts 40°
2026-04-22 11:51 55.60717 12.63936 21 ft 0 kts 40°
2026-04-22 11:52 55.60883 12.64190 20 ft 74 kts 40°
2026-04-22 11:52 55.61476 12.65101 19 ft 149 kts 40°
2026-04-22 11:52 55.62390 12.66543 198 ft 195 kts 36°
2026-04-22 11:53 55.63393 12.68137 1351 ft 190 kts 37°
2026-04-22 11:53 55.64408 12.69694 2360 ft 203 kts 36°
2026-04-22 11:53 55.65618 12.71168 3032 ft 220 kts 18°
2026-04-22 11:53 55.67096 12.71578 4155 ft 213 kts 355°
2026-04-22 11:54 55.68591 12.70932 4954 ft 232 kts 337°
2026-04-22 11:54 55.70141 12.69851 5693 ft 247 kts 352°
2026-04-22 11:54 55.71853 12.69732 6781 ft 248 kts 358°
2026-04-22 11:54 55.73601 12.69553 7682 ft 254 kts 357°
2026-04-22 11:55 55.75360 12.69364 8564 ft 258 kts 357°
2026-04-22 11:55 55.77189 12.69170 9477 ft 262 kts 357°
2026-04-22 11:55 55.79027 12.68977 10345 ft 267 kts 357°
2026-04-22 11:55 55.80905 12.68517 10866 ft 284 kts 342°
2026-04-22 11:56 55.82624 12.66586 11323 ft 305 kts 316°
2026-04-22 11:56 55.83763 12.63298 11908 ft 323 kts 295°
2026-04-22 11:56 55.84548 12.59559 12646 ft 328 kts 295°
2026-04-22 11:56 55.85378 12.55739 13414 ft 334 kts 295°
2026-04-22 11:57 55.86230 12.51860 14148 ft 339 kts 295°
2026-04-22 11:57 55.87095 12.47940 14838 ft 343 kts 295°
2026-04-22 11:57 55.87977 12.43954 15527 ft 348 kts 295°
2026-04-22 11:57 55.88868 12.39921 16256 ft 353 kts 295°
2026-04-22 11:58 55.89773 12.35825 16952 ft 357 kts 295°
2026-04-22 11:58 55.90940 12.31943 17628 ft 356 kts 310°
2026-04-22 11:58 55.92384 12.28324 18256 ft 362 kts 308°
2026-04-22 11:58 55.93829 12.24623 18899 ft 365 kts 309°
2026-04-22 11:59 55.95294 12.20891 19462 ft 369 kts 309°
2026-04-22 11:59 55.96773 12.17132 20045 ft 372 kts 309°
2026-04-22 11:59 55.98266 12.13337 20595 ft 376 kts 309°
2026-04-22 11:59 55.99774 12.09501 21139 ft 379 kts 309°
2026-04-22 12:00 56.01291 12.05632 21710 ft 382 kts 309°
2026-04-22 12:00 56.02864 12.01773 22245 ft 383 kts 316°
2026-04-22 12:00 56.04895 11.98785 22770 ft 378 kts 333°
2026-04-22 12:00 56.07167 11.96373 23237 ft 382 kts 334°
2026-04-22 12:01 56.09468 11.93947 23796 ft 384 kts 334°
2026-04-22 12:01 56.11792 11.91535 24238 ft 388 kts 335°
2026-04-22 12:01 56.14140 11.89122 24629 ft 392 kts 335°
2026-04-22 12:01 56.16520 11.86690 25008 ft 396 kts 336°
2026-04-22 12:02 56.18923 11.84238 25395 ft 399 kts 336°
2026-04-22 12:02 56.21349 11.81763 25765 ft 403 kts 336°
2026-04-22 12:02 56.23800 11.79259 26141 ft 407 kts 336°
2026-04-22 12:02 56.26240 11.76763 26516 ft 411 kts 337°
2026-04-22 12:03 56.28739 11.74203 26866 ft 414 kts 337°
2026-04-22 12:03 56.31256 11.71623 27214 ft 418 kts 337°
2026-04-22 12:03 56.33678 11.68608 27536 ft 432 kts 322°
2026-04-22 12:03 56.35718 11.64566 27988 ft 437 kts 318°
2026-04-22 12:04 56.37759 11.60449 28235 ft 444 kts 318°
2026-04-22 12:04 56.39816 11.56272 28583 ft 446 kts 318°
2026-04-22 12:04 56.41876 11.52065 28911 ft 450 kts 318°
2026-04-22 12:04 56.43957 11.47806 29223 ft 454 kts 318°
2026-04-22 12:05 56.46053 11.43510 29533 ft 457 kts 318°
2026-04-22 12:05 56.48163 11.39176 29841 ft 461 kts 318°
2026-04-22 12:05 56.50288 11.34805 30144 ft 464 kts 318°
2026-04-22 12:05 56.52428 11.30395 30430 ft 468 kts 318°
2026-04-22 12:06 56.54580 11.25950 30692 ft 471 kts 318°
2026-04-22 12:06 56.56737 11.21488 30966 ft 473 kts 318°
2026-04-22 12:06 56.58909 11.16986 31246 ft 475 kts 318°
2026-04-22 12:06 56.61088 11.12461 31503 ft 478 kts 319°
2026-04-22 12:07 56.63281 11.07898 31747 ft 480 kts 318°
2026-04-22 12:07 56.65457 11.03362 32014 ft 483 kts 319°
2026-04-22 12:07 56.67668 10.98744 32265 ft 485 kts 319°
2026-04-22 12:07 56.69887 10.94098 32516 ft 488 kts 319°
2026-04-22 12:08 56.72115 10.89428 32759 ft 490 kts 319°
2026-04-22 12:08 56.74349 10.84734 33017 ft 492 kts 319°
2026-04-22 12:08 56.76597 10.80002 33259 ft 495 kts 319°
2026-04-22 12:08 56.78853 10.75243 33495 ft 497 kts 319°
2026-04-22 12:09 56.81122 10.70447 33754 ft 499 kts 319°
2026-04-22 12:09 56.83388 10.65647 34052 ft 500 kts 319°
2026-04-22 12:09 56.85662 10.60819 34357 ft 500 kts 319°
2026-04-22 12:09 56.87926 10.56008 34613 ft 500 kts 318°
2026-04-22 12:10 56.90158 10.51250 34928 ft 499 kts 318°
2026-04-22 12:10 56.92439 10.46377 35324 ft 496 kts 317°
2026-04-22 12:10 56.94640 10.41667 35728 ft 492 kts 317°
2026-04-22 12:10 56.96855 10.36918 36115 ft 488 kts 317°
2026-04-22 12:11 56.99059 10.32186 36349 ft 488 kts 317°
2026-04-22 12:11 57.01254 10.27462 36321 ft 484 kts 317°
2026-04-22 12:11 57.05596 10.18089 36319 ft 483 kts 317°
2026-04-22 12:12 57.09950 10.08653 36301 ft 483 kts 316°
2026-04-22 12:12 57.14296 9.99195 36330 ft 485 kts 316°
2026-04-22 12:13 57.18641 9.89702 36326 ft 484 kts 316°
2026-04-22 12:13 57.22978 9.80190 36315 ft 484 kts 316°
2026-04-22 12:14 57.27280 9.70715 36328 ft 485 kts 316°
2026-04-22 12:14 57.31600 9.61163 36318 ft 483 kts 316°
2026-04-22 12:15 57.35910 9.51597 36325 ft 485 kts 316°
2026-04-22 12:15 57.40225 9.41978 36328 ft 485 kts 315°
2026-04-22 12:16 57.43809 9.33961 36327 ft 485 kts 315°
2026-04-22 12:16 57.48111 9.24300 36320 ft 485 kts 315°
2026-04-22 12:17 57.52412 9.14602 36320 ft 485 kts 315°
2026-04-22 12:17 57.56693 9.04913 36306 ft 485 kts 315°
2026-04-22 12:18 57.60989 8.95159 36295 ft 487 kts 315°
2026-04-22 12:18 57.65267 8.85404 36315 ft 485 kts 315°
2026-04-22 12:19 57.69580 8.75761 36316 ft 484 kts 316°
2026-04-22 12:19 57.73920 8.66138 36317 ft 484 kts 316°
2026-04-22 12:20 57.78249 8.56499 36310 ft 484 kts 316°
2026-04-22 12:20 57.82580 8.46819 36306 ft 486 kts 315°
2026-04-22 12:21 57.86918 8.37078 36312 ft 487 kts 315°
2026-04-22 12:21 57.91225 8.27369 36302 ft 487 kts 315°
2026-04-22 12:22 57.95551 8.17577 36290 ft 485 kts 315°
2026-04-22 12:22 57.99847 8.07814 36294 ft 483 kts 315°
2026-04-22 12:23 58.04131 7.98037 36284 ft 483 kts 315°
2026-04-22 12:23 58.08423 7.88201 36309 ft 487 kts 314°
2026-04-22 12:24 58.12721 7.78308 36295 ft 487 kts 314°
2026-04-22 12:24 58.17009 7.68397 36295 ft 487 kts 314°
2026-04-22 12:25 58.21294 7.58452 36289 ft 487 kts 314°
2026-04-22 12:25 58.25569 7.48489 36295 ft 487 kts 314°
2026-04-22 12:26 58.29801 7.38584 36277 ft 485 kts 314°
2026-04-22 12:26 58.34048 7.28601 36292 ft 486 kts 314°
2026-04-22 12:27 58.38298 7.18569 36307 ft 486 kts 313°
2026-04-22 12:27 58.42533 7.08530 36297 ft 486 kts 313°
2026-04-22 12:28 58.46766 6.98454 36313 ft 486 kts 313°
2026-04-22 12:28 58.50984 6.88368 36319 ft 486 kts 313°
2026-04-22 12:29 58.55214 6.78214 36317 ft 489 kts 313°
2026-04-22 12:29 58.59451 6.67997 36336 ft 489 kts 313°
2026-04-22 12:30 58.65782 6.52643 36373 ft 489 kts 313°
2026-04-22 12:31 58.70001 6.42360 36366 ft 489 kts 313°
2026-04-22 12:31 58.74179 6.32129 36372 ft 489 kts 312°
2026-04-22 12:32 58.78390 6.21779 36402 ft 492 kts 312°
2026-04-22 12:32 58.84715 6.06133 36408 ft 493 kts 311°
2026-04-22 12:33 58.88918 5.95684 36423 ft 493 kts 311°
2026-04-22 12:33 58.93107 5.85220 36421 ft 491 kts 311°
2026-04-22 12:34 58.97276 5.74763 36426 ft 490 kts 311°
2026-04-22 12:34 59.01435 5.64283 36425 ft 490 kts 311°
2026-04-22 12:35 59.05562 5.53835 36416 ft 490 kts 311°
2026-04-22 12:35 59.09710 5.43290 36422 ft 491 kts 311°
2026-04-22 12:36 59.13843 5.32734 36429 ft 490 kts 311°
2026-04-22 12:36 59.17972 5.22143 36429 ft 490 kts 311°
2026-04-22 12:37 59.22090 5.11532 36407 ft 491 kts 311°
2026-04-22 12:37 59.26202 5.00888 36431 ft 492 kts 310°
2026-04-22 12:38 59.30317 4.90186 36430 ft 491 kts 310°
2026-04-22 12:38 59.34413 4.79487 36436 ft 491 kts 310°
2026-04-22 12:39 59.40546 4.63374 36457 ft 491 kts 310°
2026-04-22 12:40 59.44599 4.52668 36467 ft 491 kts 310°
2026-04-22 12:40 59.48686 4.41821 36461 ft 495 kts 310°
2026-04-22 12:41 59.52780 4.30902 36463 ft 495 kts 309°
2026-04-22 12:41 59.56848 4.20002 36463 ft 493 kts 309°
2026-04-22 12:42 59.60904 4.09087 36470 ft 493 kts 309°
2026-04-22 12:42 59.64950 3.98144 36471 ft 493 kts 309°
2026-04-22 12:43 59.68994 3.87160 36481 ft 494 kts 309°
2026-04-22 12:43 59.73039 3.76117 36484 ft 497 kts 309°
2026-04-22 12:44 59.77085 3.65021 36489 ft 496 kts 309°
2026-04-22 12:44 59.81124 3.53892 36490 ft 497 kts 308°
2026-04-22 12:45 59.85152 3.42741 36472 ft 496 kts 308°
2026-04-22 12:45 59.89156 3.31602 36496 ft 494 kts 308°
2026-04-22 12:46 59.93129 3.20497 36497 ft 497 kts 308°
2026-04-22 12:46 59.97163 3.09166 36503 ft 498 kts 308°
2026-04-22 12:47 60.01163 2.97877 36505 ft 498 kts 308°
2026-04-22 12:47 60.05152 2.86565 36507 ft 498 kts 308°
2026-04-22 12:48 60.09109 2.75292 36507 ft 498 kts 308°
2026-04-22 12:48 60.13082 2.63914 36532 ft 498 kts 307°
2026-04-22 12:49 60.17062 2.52466 36518 ft 500 kts 307°
2026-04-22 12:49 60.21034 2.40975 36517 ft 500 kts 307°
2026-04-22 12:50 60.24994 2.29470 36523 ft 500 kts 307°
2026-04-22 12:50 60.28938 2.17953 36524 ft 500 kts 307°
2026-04-22 12:51 60.32878 2.06391 36530 ft 500 kts 307°
2026-04-22 12:51 60.36811 1.94792 36529 ft 502 kts 306°
2026-04-22 12:52 60.40750 1.83113 36536 ft 503 kts 306°
2026-04-22 12:52 60.44681 1.71405 36532 ft 503 kts 306°
2026-04-22 12:53 60.48602 1.59665 36534 ft 501 kts 306°
2026-04-22 12:53 60.52498 1.47940 36534 ft 501 kts 306°
2026-04-22 12:54 60.56353 1.36282 36535 ft 501 kts 306°
2026-04-22 12:54 60.60238 1.24472 36540 ft 504 kts 305°
2026-04-22 12:55 60.63472 1.14594 36541 ft 504 kts 305°
2026-04-22 12:55 60.68005 1.00682 36545 ft 504 kts 305°
2026-04-22 12:56 60.71868 0.88764 36546 ft 504 kts 305°
2026-04-22 12:56 60.75729 0.76806 36528 ft 504 kts 305°
2026-04-22 12:57 60.79573 0.64839 36564 ft 503 kts 304°
2026-04-22 12:57 60.83419 0.52804 36551 ft 506 kts 304°
2026-04-22 12:58 60.87265 0.40715 36547 ft 506 kts 304°
2026-04-22 12:58 60.91080 0.28660 36552 ft 506 kts 304°
2026-04-22 12:59 60.94906 0.16512 36552 ft 506 kts 304°
2026-04-22 12:59 60.98714 0.04363 36554 ft 506 kts 304°
2026-04-22 13:00 61.02037 -0.08399 36587 ft 507 kts 296°
2026-04-22 13:00 61.05197 -0.21444 36531 ft 508 kts 297°
2026-04-22 13:01 61.08396 -0.34459 36562 ft 508 kts 297°
2026-04-22 13:01 61.11584 -0.47469 36555 ft 508 kts 297°
2026-04-22 13:02 61.14763 -0.60516 36556 ft 508 kts 297°
2026-04-22 13:02 61.17930 -0.73598 36557 ft 508 kts 296°
2026-04-22 13:03 61.21080 -0.86682 36563 ft 508 kts 296°
2026-04-22 13:03 61.23689 -0.97581 36563 ft 508 kts 296°
2026-04-22 13:04 61.26819 -1.10727 36558 ft 508 kts 296°
2026-04-22 13:04 61.29938 -1.23907 36561 ft 508 kts 296°
2026-04-22 13:05 61.33038 -1.37088 36536 ft 508 kts 296°
2026-04-22 13:05 61.36131 -1.50317 36567 ft 508 kts 296°
2026-04-22 13:06 61.39215 -1.63593 36563 ft 508 kts 295°
2026-04-22 13:06 61.42264 -1.76802 36562 ft 508 kts 295°
2026-04-22 13:07 61.45321 -1.90124 36562 ft 508 kts 295°
2026-04-22 13:07 61.48366 -2.03472 36565 ft 508 kts 295°
2026-04-22 13:08 61.51397 -2.16848 36580 ft 509 kts 295°
2026-04-22 13:08 61.54413 -2.30239 36568 ft 509 kts 294°
2026-04-22 13:09 61.57420 -2.43676 36562 ft 509 kts 294°
2026-04-22 13:09 61.60414 -2.57140 36567 ft 509 kts 294°
2026-04-22 13:10 61.63390 -2.70608 36568 ft 509 kts 294°
2026-04-22 13:10 61.66360 -2.84134 36601 ft 509 kts 294°
2026-04-22 13:11 61.69312 -2.97667 36567 ft 508 kts 294°
2026-04-22 13:11 61.72230 -3.11128 36568 ft 508 kts 294°
2026-04-22 13:12 61.75152 -3.24694 36572 ft 508 kts 294°
2026-04-22 13:12 61.78062 -3.38297 36573 ft 508 kts 293°
2026-04-22 13:13 61.80957 -3.51916 36567 ft 508 kts 293°
2026-04-22 13:13 61.83843 -3.65574 36580 ft 508 kts 293°
2026-04-22 13:14 61.86705 -3.79220 36569 ft 508 kts 293°
2026-04-22 13:14 61.89562 -3.92926 36570 ft 509 kts 293°
2026-04-22 13:15 61.92410 -4.06682 36570 ft 509 kts 293°
2026-04-22 13:15 61.95240 -4.20446 36573 ft 509 kts 292°
2026-04-22 13:16 61.98060 -4.34246 36605 ft 509 kts 293°
2026-04-22 13:16 62.00861 -4.48055 36574 ft 508 kts 292°
2026-04-22 13:17 62.03648 -4.61884 36576 ft 508 kts 292°
2026-04-22 13:17 62.06400 -4.75633 36577 ft 508 kts 292°
2026-04-22 13:18 62.09161 -4.89519 36574 ft 508 kts 292°
2026-04-22 13:18 62.11908 -5.03429 36572 ft 508 kts 292°
2026-04-22 13:19 62.14639 -5.17352 36559 ft 508 kts 292°
2026-04-22 13:19 62.17360 -5.31333 36578 ft 509 kts 292°
2026-04-22 13:20 62.20068 -5.45338 36569 ft 509 kts 292°
2026-04-22 13:20 62.22763 -5.59369 36571 ft 509 kts 291°
2026-04-22 13:21 62.25440 -5.73409 36574 ft 509 kts 291°
2026-04-22 13:21 62.28106 -5.87486 36600 ft 509 kts 291°
2026-04-22 13:22 62.30750 -6.01557 36560 ft 507 kts 291°
2026-04-22 13:22 62.33358 -6.15529 36558 ft 507 kts 291°
2026-04-22 13:23 62.35973 -6.29642 36569 ft 507 kts 291°
2026-04-22 13:23 62.38574 -6.43776 36523 ft 508 kts 291°
2026-04-22 13:24 62.41167 -6.57978 36570 ft 510 kts 290°
2026-04-22 13:24 62.43743 -6.72186 36568 ft 508 kts 291°
2026-04-22 13:25 62.46302 -6.86402 36580 ft 508 kts 290°
2026-04-22 13:25 62.48848 -7.00652 36575 ft 508 kts 290°
2026-04-22 13:26 62.51376 -7.14911 36573 ft 508 kts 290°
2026-04-22 13:26 62.53893 -7.29206 36579 ft 508 kts 290°
2026-04-22 13:27 62.56394 -7.43517 36601 ft 507 kts 290°
2026-04-22 13:27 62.58868 -7.57795 36566 ft 505 kts 290°
2026-04-22 13:28 62.61325 -7.72067 36567 ft 505 kts 290°
2026-04-22 13:28 62.63771 -7.86390 36569 ft 507 kts 289°
2026-04-22 13:29 62.66197 -8.00707 36562 ft 507 kts 289°
2026-04-22 13:29 62.68617 -8.15094 36563 ft 507 kts 289°
2026-04-22 13:30 62.71025 -8.29525 36564 ft 507 kts 289°
2026-04-22 13:30 62.73420 -8.43985 36561 ft 507 kts 289°
2026-04-22 13:31 62.75802 -8.58484 36557 ft 507 kts 289°
2026-04-22 13:31 62.78165 -8.72981 36556 ft 507 kts 289°
2026-04-22 13:32 62.80512 -8.87494 36557 ft 507 kts 288°
2026-04-22 13:32 62.82846 -9.02041 36579 ft 506 kts 289°
2026-04-22 13:33 62.85140 -9.16461 36537 ft 505 kts 288°
2026-04-22 13:33 62.87436 -9.31004 36552 ft 506 kts 288°
2026-04-22 13:34 62.89719 -9.45581 36553 ft 505 kts 288°
2026-04-22 13:34 62.91986 -9.60178 36550 ft 505 kts 288°
2026-04-22 13:35 62.94234 -9.74770 36547 ft 505 kts 288°
2026-04-22 13:35 62.96470 -9.89404 36552 ft 503 kts 288°
2026-04-22 13:36 62.98681 -10.03999 36552 ft 503 kts 288°
2026-04-22 13:36 63.00878 -10.18619 36546 ft 503 kts 288°
2026-04-22 13:37 63.03056 -10.33237 36549 ft 503 kts 287°
2026-04-22 13:37 63.05210 -10.47810 36496 ft 503 kts 287°
2026-04-22 13:38 63.07360 -10.62485 36561 ft 503 kts 287°
2026-04-22 13:38 63.10546 -10.84469 36536 ft 501 kts 287°
2026-04-22 13:39 63.12648 -10.99132 36532 ft 501 kts 287°
2026-04-22 13:39 63.14740 -11.13847 36532 ft 501 kts 287°
2026-04-22 13:40 63.16811 -11.28545 36535 ft 501 kts 287°
2026-04-22 13:40 63.18870 -11.43279 36547 ft 501 kts 287°
2026-04-22 13:41 63.20910 -11.58019 36525 ft 499 kts 286°
2026-04-22 13:41 63.22928 -11.72723 36523 ft 499 kts 286°
2026-04-22 13:42 63.24930 -11.87448 36483 ft 499 kts 286°
2026-04-22 13:42 63.26907 -12.02113 36517 ft 498 kts 286°
2026-04-22 13:43 63.28878 -12.16870 36519 ft 498 kts 285°
2026-04-22 13:43 63.30831 -12.31620 36524 ft 497 kts 285°
2026-04-22 13:44 63.32760 -12.46335 36508 ft 496 kts 285°
2026-04-22 13:44 63.34677 -12.61088 36508 ft 496 kts 285°
2026-04-22 13:45 63.36581 -12.75878 36508 ft 496 kts 285°
2026-04-22 13:45 63.38462 -12.90630 36508 ft 496 kts 285°
2026-04-22 13:46 63.40333 -13.05439 36496 ft 496 kts 285°
2026-04-22 13:46 63.42186 -13.20246 36500 ft 494 kts 285°
2026-04-22 13:47 63.44020 -13.35041 36471 ft 494 kts 284°
2026-04-22 13:47 63.45832 -13.49807 36494 ft 493 kts 284°
2026-04-22 13:48 63.47629 -13.64587 36481 ft 493 kts 284°
2026-04-22 13:48 63.49400 -13.79302 36482 ft 493 kts 284°
2026-04-22 13:49 63.51168 -13.94134 36493 ft 493 kts 284°
2026-04-22 13:49 63.52915 -14.08930 36476 ft 491 kts 284°
2026-04-22 13:50 63.54646 -14.23746 36477 ft 491 kts 284°
2026-04-22 13:50 63.56361 -14.38570 36471 ft 491 kts 284°
2026-04-22 13:51 63.58059 -14.53388 36471 ft 491 kts 284°
2026-04-22 13:51 63.59743 -14.68242 36471 ft 491 kts 283°
2026-04-22 13:52 63.61411 -14.83109 36467 ft 489 kts 283°
2026-04-22 13:52 63.62784 -14.95433 36462 ft 490 kts 283°
2026-04-22 13:53 63.64714 -15.12904 36461 ft 501 kts 283°
2026-04-22 13:53 63.66387 -15.28216 36461 ft 504 kts 283°
2026-04-22 13:54 63.67780 -15.41083 36454 ft 504 kts 283°
2026-04-22 13:54 63.69428 -15.56448 36455 ft 504 kts 283°
2026-04-22 13:55 63.71058 -15.71803 36469 ft 503 kts 283°
2026-04-22 13:55 63.72670 -15.87142 36451 ft 502 kts 283°
2026-04-22 13:56 63.74258 -16.02401 36448 ft 502 kts 282°
2026-04-22 13:56 63.75821 -16.17602 36450 ft 502 kts 282°
2026-04-22 13:57 63.77382 -16.32988 36453 ft 502 kts 282°
2026-04-22 13:57 63.78926 -16.48382 36447 ft 502 kts 282°
2026-04-22 13:58 63.80420 -16.63824 36429 ft 502 kts 277°
2026-04-22 13:58 63.81138 -16.79489 36447 ft 501 kts 275°
2026-04-22 13:59 63.81899 -16.95166 36435 ft 501 kts 275°
2026-04-22 13:59 63.82667 -17.10845 36438 ft 501 kts 275°
2026-04-22 14:00 63.83418 -17.26516 36440 ft 501 kts 275°
2026-04-22 14:00 63.84151 -17.42204 36452 ft 500 kts 275°
2026-04-22 14:01 63.84503 -17.49849 36456 ft 489 kts 275°
2026-04-22 14:01 63.84848 -17.57467 36452 ft 483 kts 275°
2026-04-22 14:01 63.85521 -17.72557 36439 ft 481 kts 275°
2026-04-22 14:02 63.85851 -17.80086 36180 ft 477 kts 274°
2026-04-22 14:02 63.86175 -17.87570 35469 ft 480 kts 274°
2026-04-22 14:02 63.86498 -17.95124 34768 ft 482 kts 274°
2026-04-22 14:02 63.86818 -18.02679 34205 ft 480 kts 274°
2026-04-22 14:03 63.87129 -18.10172 33758 ft 474 kts 273°
2026-04-22 14:03 63.87435 -18.17591 33307 ft 470 kts 273°
2026-04-22 14:03 63.87733 -18.24929 32819 ft 466 kts 273°
2026-04-22 14:03 63.88027 -18.32247 32299 ft 463 kts 273°
2026-04-22 14:04 63.88312 -18.39443 31780 ft 455 kts 273°
2026-04-22 14:04 63.88591 -18.46577 31328 ft 452 kts 273°
2026-04-22 14:04 63.88865 -18.53667 30872 ft 450 kts 273°
2026-04-22 14:04 63.89134 -18.60721 30367 ft 448 kts 273°
2026-04-22 14:05 63.89395 -18.67669 29822 ft 447 kts 273°
2026-04-22 14:05 63.89655 -18.74677 29380 ft 443 kts 273°
2026-04-22 14:05 63.90160 -18.88527 28471 ft 437 kts 273°
2026-04-22 14:06 63.90404 -18.95360 28025 ft 434 kts 273°
2026-04-22 14:06 63.90645 -19.02172 27562 ft 431 kts 273°
2026-04-22 14:06 63.90879 -19.08937 27140 ft 428 kts 273°
2026-04-22 14:06 63.91109 -19.15638 26706 ft 425 kts 273°
2026-04-22 14:07 63.91335 -19.22324 26262 ft 423 kts 273°
2026-04-22 14:07 63.91556 -19.28971 25831 ft 420 kts 274°
2026-04-22 14:07 63.91773 -19.35561 25416 ft 418 kts 274°
2026-04-22 14:07 63.91986 -19.42131 24988 ft 415 kts 274°
2026-04-22 14:08 63.92195 -19.48662 24569 ft 413 kts 274°
2026-04-22 14:08 63.92399 -19.55148 24155 ft 411 kts 274°
2026-04-22 14:08 63.92601 -19.61614 23682 ft 409 kts 274°
2026-04-22 14:08 63.92798 -19.68052 23221 ft 406 kts 274°
2026-04-22 14:09 63.92990 -19.74435 22820 ft 402 kts 274°
2026-04-22 14:09 63.93178 -19.80748 22401 ft 399 kts 274°
2026-04-22 14:09 63.93361 -19.87013 22001 ft 395 kts 274°
2026-04-22 14:09 63.93541 -19.93213 21596 ft 391 kts 274°
2026-04-22 14:10 63.93715 -19.99363 21207 ft 388 kts 274°
2026-04-22 14:10 63.93888 -20.05462 20813 ft 385 kts 274°
2026-04-22 14:10 63.94056 -20.11488 20415 ft 382 kts 274°
2026-04-22 14:10 63.94222 -20.17489 20040 ft 379 kts 274°
2026-04-22 14:11 63.94384 -20.23448 19653 ft 376 kts 274°
2026-04-22 14:11 63.94541 -20.29294 19286 ft 374 kts 274°
2026-04-22 14:11 63.94646 -20.35166 19053 ft 366 kts 267°
2026-04-22 14:11 63.94299 -20.40855 18612 ft 363 kts 260°
2026-04-22 14:12 63.93863 -20.46462 18114 ft 356 kts 261°
2026-04-22 14:12 63.93450 -20.51911 17738 ft 343 kts 261°
2026-04-22 14:12 63.93056 -20.57198 17191 ft 337 kts 261°
2026-04-22 14:12 63.92669 -20.62430 16588 ft 334 kts 261°
2026-04-22 14:13 63.92290 -20.67548 16167 ft 325 kts 261°
2026-04-22 14:13 63.91920 -20.72539 15811 ft 314 kts 261°
2026-04-22 14:13 63.91562 -20.77354 15493 ft 304 kts 261°
2026-04-22 14:13 63.91214 -20.82006 15183 ft 294 kts 261°
2026-04-22 14:14 63.90871 -20.86572 14883 ft 292 kts 261°
2026-04-22 14:14 63.90528 -20.91113 14575 ft 291 kts 261°
2026-04-22 14:14 63.90186 -20.95632 14259 ft 290 kts 261°
2026-04-22 14:14 63.89843 -21.00130 13916 ft 288 kts 261°
2026-04-22 14:15 63.89502 -21.04589 13599 ft 286 kts 261°
2026-04-22 14:15 63.89163 -21.09019 13297 ft 283 kts 261°
2026-04-22 14:15 63.88826 -21.13397 13007 ft 281 kts 261°
2026-04-22 14:15 63.88488 -21.17752 12732 ft 281 kts 260°
2026-04-22 14:16 63.88142 -21.22142 12475 ft 285 kts 260°
2026-04-22 14:16 63.87794 -21.26590 12230 ft 287 kts 260°
2026-04-22 14:16 63.87444 -21.31044 11959 ft 286 kts 261°
2026-04-22 14:16 63.87093 -21.35486 11685 ft 286 kts 261°
2026-04-22 14:17 63.86743 -21.39923 11418 ft 286 kts 261°
2026-04-22 14:17 63.86391 -21.44363 11144 ft 284 kts 261°
2026-04-22 14:17 63.86041 -21.48752 10865 ft 281 kts 261°
2026-04-22 14:17 63.85694 -21.53088 10592 ft 279 kts 261°
2026-04-22 14:18 63.85347 -21.57402 10285 ft 277 kts 261°
2026-04-22 14:18 63.85002 -21.61675 9992 ft 274 kts 261°
2026-04-22 14:18 63.84659 -21.65900 9713 ft 271 kts 261°
2026-04-22 14:18 63.84324 -21.70018 9460 ft 267 kts 261°
2026-04-22 14:19 63.83987 -21.74141 9178 ft 265 kts 262°
2026-04-22 14:19 63.83652 -21.78233 8912 ft 265 kts 262°
2026-04-22 14:19 63.83315 -21.82339 8668 ft 266 kts 261°
2026-04-22 14:19 63.82974 -21.86455 8420 ft 266 kts 261°
2026-04-22 14:20 63.82291 -21.94675 7913 ft 264 kts 261°
2026-04-22 14:20 63.81952 -21.98729 7667 ft 260 kts 262°
2026-04-22 14:20 63.81617 -22.02728 7411 ft 258 kts 262°
2026-04-22 14:21 63.80903 -22.10691 6904 ft 259 kts 255°
2026-04-22 14:21 63.80316 -22.14490 6565 ft 252 kts 252°
2026-04-22 14:22 63.79208 -22.21687 6033 ft 232 kts 253°
2026-04-22 14:22 63.78697 -22.25074 5785 ft 224 kts 256°
2026-04-22 14:22 63.77719 -22.31666 5349 ft 221 kts 255°
2026-04-22 14:23 63.77228 -22.34965 5132 ft 222 kts 253°
2026-04-22 14:23 63.77026 -22.38331 4850 ft 219 kts 281°
2026-04-22 14:23 63.77448 -22.41598 4598 ft 216 kts 290°
2026-04-22 14:23 63.77927 -22.44793 4348 ft 214 kts 291°
2026-04-22 14:24 63.78411 -22.47939 4139 ft 209 kts 291°
2026-04-22 14:24 63.78892 -22.51015 3930 ft 206 kts 291°
2026-04-22 14:24 63.79370 -22.54042 3687 ft 203 kts 291°
2026-04-22 14:24 63.79860 -22.57016 3453 ft 199 kts 297°
2026-04-22 14:25 63.80766 -22.59277 3212 ft 194 kts 330°
2026-04-22 14:25 63.82031 -22.60195 3044 ft 187 kts 348°
2026-04-22 14:25 63.83283 -22.60448 2820 ft 176 kts 355°
2026-04-22 14:25 63.84451 -22.60507 2603 ft 159 kts 355°
2026-04-22 14:26 63.85531 -22.60524 2436 ft 154 kts 356°
2026-04-22 14:26 63.86599 -22.60533 2209 ft 153 kts 355°
2026-04-22 14:26 63.87662 -22.60538 1996 ft 153 kts 355°
2026-04-22 14:26 63.88724 -22.60541 1776 ft 152 kts 356°
2026-04-22 14:27 63.89748 -22.60540 1570 ft 143 kts 356°
2026-04-22 14:27 63.90721 -22.60531 1403 ft 138 kts 357°
2026-04-22 14:27 63.91682 -22.60481 1234 ft 138 kts 357°
2026-04-22 14:27 63.92635 -22.60535 964 ft 138 kts 354°
2026-04-22 14:28 63.93596 -22.60529 774 ft 138 kts 357°
2026-04-22 14:28 63.94550 -22.60517 606 ft 137 kts 356°
2026-04-22 14:28 63.95509 -22.60545 380 ft 137 kts 358°
2026-04-22 14:28 63.96458 -22.60536 201 ft 135 kts 355°
2026-04-22 14:29 63.97327 -22.60544 172 ft 104 kts 358°
2026-04-22 14:29 63.97880 -22.60547 173 ft 67 kts 358°
2026-04-22 14:29 63.98174 -22.60689 172 ft 40 kts 333°
2026-04-22 14:29 63.98397 -22.60939 168 ft 25 kts 354°
2026-04-22 14:30 63.98574 -22.60942 171 ft 27 kts
2026-04-22 14:30 63.98767 -22.60938 168 ft 28 kts 359°
2026-04-22 14:30 63.98961 -22.60939 173 ft 27 kts 358°
2026-04-22 14:30 63.99105 -22.60941 168 ft 17 kts 359°
2026-04-22 14:31 63.99164 -22.60973 166 ft 10 kts 314°
2026-04-22 14:31 63.99174 -22.61167 161 ft 16 kts 270°
2026-04-22 14:31 63.99175 -22.61465 155 ft 22 kts 268°
2026-04-22 14:31 63.99173 -22.61856 146 ft 28 kts 270°
2026-04-22 14:32 63.99172 -22.62280 145 ft 25 kts 270°
2026-04-22 14:32 63.99173 -22.62604 145 ft 10 kts 272°
2026-04-22 14:32 63.99217 -22.62678 145 ft 8 kts
2026-04-22 14:32 63.99262 -22.62601 145 ft 8 kts 50°
2026-04-22 14:33 63.99270 -22.62580 145 ft 2 kts 50°
2026-04-22 14:33 63.99272 -22.62573 145 ft 0 kts 51°